Location: Unspecified
(0.0000°N, 0.0000°E)
Time: 13:57:15
(UTC+00:00)

ISS - Visible Passes

Search period start: 23 April 2017 00:00
Search period end: 03 May 2017 00:00
Orbit: 400 x 409 km, 51.6° (Epoch: 23 April)

Date Brightness Start Highest point End Pass type
(mag) Time Alt. Az. Time Alt. Az. Time Alt. Az.
23 Apr -1.8 18:58:43 10° WNW 19:01:31 26° SW 19:04:22 10° S visible
26 Apr -1.4 04:48:36 10° S 04:51:05 20° SE 04:53:33 10° ENE visible
27 Apr -2.8 05:32:10 10° WSW 05:35:06 30° NW 05:38:01 10° N visible
28 Apr -3.9 04:42:12 53° SSW 04:42:51 85° SE 04:46:06 10° NE visible
29 Apr -0.6 03:52:47 14° ENE 03:52:47 14° ENE 03:53:26 10° ENE visible
30 Apr -1.7 04:35:58 17° NNW 04:35:58 17° NNW 04:37:10 10° N visible
